UAL2848 TDPD-KEWR

Flight info

Callsign UAL2848
Flight time 4h 17m
Altitude 36000
Route KAROT1 PPR DCT ELOPO Y355 SLUGO DCT THANK/N0464F370 DCT HANCY/M080F360 L456 VINSO/M080F380 L456 DARUX L459 SAVIK/N0455F380 DCT YAALE/N0455F390 Y497 MOUGH/N0456F380 Y497 SUBBS DCT CYN DCT GXU DCT RBV V249 METRO DCT
Aircraft B737/M-SDE2E3FGHIRWXY/LB1

Departure

Time 2026-04-22 18:31
Airport Douglas-Charles Airport (TDPD)

Arrival

Time 2026-04-22 22:48
Airport Newark Liberty International Airport (KEWR)
Time Latitude Longitude Altitude Speed Heading
2026-04-22 18:20 15.54578 -61.30078 56 ft 0 kts 248°
2026-04-22 18:27 15.54575 -61.30084 51 ft 4 kts 249°
2026-04-22 18:28 15.54567 -61.30139 58 ft 10 kts 282°
2026-04-22 18:28 15.54603 -61.30216 60 ft 13 kts 296°
2026-04-22 18:28 15.54600 -61.30303 63 ft 13 kts 248°
2026-04-22 18:28 15.54567 -61.30388 66 ft 13 kts 249°
2026-04-22 18:29 15.54529 -61.30497 62 ft 19 kts 250°
2026-04-22 18:29 15.54481 -61.30636 69 ft 20 kts 252°
2026-04-22 18:29 15.54433 -61.30771 86 ft 20 kts 248°
2026-04-22 18:29 15.54379 -61.30879 93 ft 10 kts 244°
2026-04-22 18:30 15.54389 -61.30889 90 ft 3 kts 39°
2026-04-22 18:30 15.54402 -61.30868 88 ft 0 kts 69°
2026-04-22 18:30 15.54504 -61.30578 67 ft 88 kts 69°
2026-04-22 18:31 15.54808 -61.29711 43 ft 164 kts 71°
2026-04-22 18:31 15.55218 -61.28521 733 ft 177 kts 72°
2026-04-22 18:31 15.55659 -61.27227 1387 ft 206 kts 69°
2026-04-22 18:31 15.56176 -61.25774 2085 ft 212 kts 70°
2026-04-22 18:32 15.56668 -61.24399 3364 ft 196 kts 70°
2026-04-22 18:32 15.57133 -61.23100 4471 ft 193 kts 69°
2026-04-22 18:32 15.57643 -61.21743 5087 ft 216 kts 63°
2026-04-22 18:32 15.58764 -61.20594 5365 ft 243 kts 23°
2026-04-22 18:33 15.60397 -61.19992 6007 ft 260 kts 19°
2026-04-22 18:33 15.62173 -61.19358 6672 ft 277 kts 19°
2026-04-22 18:33 15.63993 -61.18684 7726 ft 280 kts 20°
2026-04-22 18:33 15.65847 -61.17981 8654 ft 286 kts 20°
2026-04-22 18:34 15.67732 -61.17262 9640 ft 291 kts 20°
2026-04-22 18:34 15.69710 -61.16803 10561 ft 296 kts 359°
2026-04-22 18:34 15.71767 -61.17281 11015 ft 318 kts 333°
2026-04-22 18:34 15.73730 -61.18462 11248 ft 344 kts 327°
2026-04-22 18:35 15.75816 -61.19860 11448 ft 369 kts 326°
2026-04-22 18:35 15.78022 -61.21379 11684 ft 390 kts 326°
2026-04-22 18:35 15.80339 -61.22973 12233 ft 398 kts 326°
2026-04-22 18:35 15.82628 -61.24536 13027 ft 399 kts 326°
2026-04-22 18:36 15.84991 -61.26136 13743 ft 402 kts 326°
2026-04-22 18:36 15.87320 -61.27706 14361 ft 405 kts 326°
2026-04-22 18:36 15.89701 -61.29303 14926 ft 410 kts 326°
2026-04-22 18:36 15.92109 -61.30917 15550 ft 413 kts 326°
2026-04-22 18:37 15.94531 -61.32540 16151 ft 415 kts 326°
2026-04-22 18:37 15.96967 -61.34171 16685 ft 418 kts 326°
2026-04-22 18:37 15.99419 -61.35817 17171 ft 421 kts 326°
2026-04-22 18:37 16.01888 -61.37473 17638 ft 424 kts 326°
2026-04-22 18:38 16.04376 -61.39139 18133 ft 426 kts 325°
2026-04-22 18:38 16.06870 -61.40810 18594 ft 427 kts 325°
2026-04-22 18:38 16.09379 -61.42492 18996 ft 431 kts 325°
2026-04-22 18:39 16.14444 -61.45892 19780 ft 435 kts 325°
2026-04-22 18:39 16.16993 -61.47606 20165 ft 437 kts 324°
2026-04-22 18:39 16.19552 -61.49328 20525 ft 438 kts 324°
2026-04-22 18:39 16.22126 -61.51057 20810 ft 442 kts 324°
2026-04-22 18:40 16.24713 -61.52796 21124 ft 444 kts 324°
2026-04-22 18:40 16.27309 -61.54549 21458 ft 445 kts 324°
2026-04-22 18:40 16.29866 -61.56357 21715 ft 446 kts 323°
2026-04-22 18:40 16.32413 -61.58210 21944 ft 448 kts 322°
2026-04-22 18:41 16.34966 -61.60084 22222 ft 450 kts 322°
2026-04-22 18:41 16.37522 -61.61966 22521 ft 450 kts 322°
2026-04-22 18:41 16.40055 -61.63823 22778 ft 452 kts 322°
2026-04-22 18:41 16.42632 -61.65707 23051 ft 453 kts 322°
2026-04-22 18:42 16.45222 -61.67595 23298 ft 455 kts 322°
2026-04-22 18:42 16.47817 -61.69485 23515 ft 456 kts 322°
2026-04-22 18:42 16.50425 -61.71380 23713 ft 458 kts 322°
2026-04-22 18:42 16.53043 -61.73286 23905 ft 459 kts 322°
2026-04-22 18:43 16.55666 -61.75196 24123 ft 460 kts 322°
2026-04-22 18:43 16.58293 -61.77108 24313 ft 461 kts 322°
2026-04-22 18:43 16.60926 -61.79025 24482 ft 463 kts 322°
2026-04-22 18:43 16.63565 -61.80949 24674 ft 464 kts 321°
2026-04-22 18:44 16.66216 -61.82885 24903 ft 465 kts 321°
2026-04-22 18:44 16.68866 -61.84817 25135 ft 465 kts 321°
2026-04-22 18:44 16.71526 -61.86757 25269 ft 467 kts 321°
2026-04-22 18:44 16.74195 -61.88704 25418 ft 469 kts 321°
2026-04-22 18:45 16.76871 -61.90657 25594 ft 469 kts 321°
2026-04-22 18:45 16.79544 -61.92611 25724 ft 470 kts 321°
2026-04-22 18:45 16.82226 -61.94572 25861 ft 471 kts 321°
2026-04-22 18:45 16.84912 -61.96535 25993 ft 472 kts 321°
2026-04-22 18:46 16.87562 -61.98474 26133 ft 472 kts 321°
2026-04-22 18:46 16.90257 -62.00444 26246 ft 473 kts 321°
2026-04-22 18:46 16.92962 -62.02422 26358 ft 475 kts 321°
2026-04-22 18:46 16.95666 -62.04401 26483 ft 475 kts 321°
2026-04-22 18:47 16.98366 -62.06382 26679 ft 473 kts 321°
2026-04-22 18:47 17.01063 -62.08350 26891 ft 472 kts 321°
2026-04-22 18:47 17.03759 -62.10316 27030 ft 472 kts 321°
2026-04-22 18:47 17.06443 -62.12283 27200 ft 472 kts 321°
2026-04-22 18:48 17.09131 -62.14254 27423 ft 471 kts 321°
2026-04-22 18:48 17.11813 -62.16223 27673 ft 470 kts 320°
2026-04-22 18:48 17.14488 -62.18185 27935 ft 470 kts 321°
2026-04-22 18:48 17.17156 -62.20147 28223 ft 468 kts 320°
2026-04-22 18:49 17.19815 -62.22102 28449 ft 467 kts 320°
2026-04-22 18:49 17.22474 -62.24056 28659 ft 467 kts 320°
2026-04-22 18:49 17.25132 -62.26011 28864 ft 467 kts 320°
2026-04-22 18:49 17.27788 -62.27965 29137 ft 466 kts 320°
2026-04-22 18:50 17.30436 -62.29914 29445 ft 465 kts 320°
2026-04-22 18:50 17.33071 -62.31849 29747 ft 463 kts 320°
2026-04-22 18:50 17.35710 -62.33795 29999 ft 464 kts 320°
2026-04-22 18:50 17.38344 -62.35735 30315 ft 462 kts 320°
2026-04-22 18:51 17.40974 -62.37671 30661 ft 461 kts 319°
2026-04-22 18:51 17.43592 -62.39599 31001 ft 460 kts 319°
2026-04-22 18:51 17.46208 -62.41527 31326 ft 459 kts 319°
2026-04-22 18:51 17.48816 -62.43446 31670 ft 458 kts 319°
2026-04-22 18:52 17.51424 -62.45368 31986 ft 458 kts 319°
2026-04-22 18:52 17.54022 -62.47282 32326 ft 456 kts 319°
2026-04-22 18:52 17.56615 -62.49199 32663 ft 456 kts 319°
2026-04-22 18:52 17.59200 -62.51111 33003 ft 454 kts 319°
2026-04-22 18:53 17.61780 -62.53017 33337 ft 454 kts 319°
2026-04-22 18:53 17.64236 -62.55055 33656 ft 447 kts 311°
2026-04-22 18:53 17.66380 -62.57384 33970 ft 441 kts 303°
2026-04-22 18:53 17.68176 -62.59960 34361 ft 436 kts 300°
2026-04-22 18:54 17.69899 -62.62561 34795 ft 432 kts 299°
2026-04-22 18:54 17.71604 -62.65154 35188 ft 430 kts 299°
2026-04-22 18:54 17.73298 -62.67733 35529 ft 429 kts 299°
2026-04-22 18:54 17.75000 -62.70312 35811 ft 430 kts 299°
2026-04-22 18:55 17.76704 -62.72884 36007 ft 431 kts 300°
2026-04-22 18:55 17.78424 -62.75474 35984 ft 432 kts 300°
2026-04-22 18:55 17.81832 -62.80587 35993 ft 429 kts 300°
2026-04-22 18:56 17.85275 -62.85742 35988 ft 428 kts 300°
2026-04-22 18:56 17.88648 -62.90808 35992 ft 425 kts 300°
2026-04-22 18:57 17.92034 -62.95891 35999 ft 425 kts 300°
2026-04-22 18:57 17.95415 -63.00973 35993 ft 425 kts 300°
2026-04-22 18:58 17.98799 -63.06064 35991 ft 425 kts 300°
2026-04-22 18:58 18.02191 -63.11171 35999 ft 426 kts 299°
2026-04-22 18:59 18.05588 -63.16284 35990 ft 426 kts 299°
2026-04-22 18:59 18.08981 -63.21396 35986 ft 426 kts 299°
2026-04-22 19:00 18.12362 -63.26503 35979 ft 425 kts 299°
2026-04-22 19:00 18.15731 -63.31594 35996 ft 424 kts 299°
2026-04-22 19:01 18.19098 -63.36683 35993 ft 424 kts 299°
2026-04-22 19:01 18.22463 -63.41773 35998 ft 424 kts 299°
2026-04-22 19:02 18.25828 -63.46870 36003 ft 425 kts 299°
2026-04-22 19:02 18.29200 -63.51972 36002 ft 424 kts 300°
2026-04-22 19:03 18.32563 -63.57081 36001 ft 425 kts 299°
2026-04-22 19:03 18.35927 -63.62188 35998 ft 425 kts 299°
2026-04-22 19:04 18.39649 -63.67066 36001 ft 433 kts 309°
2026-04-22 19:04 18.44440 -63.71030 36009 ft 440 kts 317°
2026-04-22 19:05 18.49445 -63.74760 36013 ft 441 kts 317°
2026-04-22 19:05 18.54440 -63.78513 36006 ft 441 kts 317°
2026-04-22 19:06 18.59433 -63.82284 36011 ft 441 kts 317°
2026-04-22 19:07 18.66855 -63.87937 36014 ft 441 kts 317°
2026-04-22 19:07 18.71855 -63.91748 36002 ft 440 kts 317°
2026-04-22 19:08 18.76774 -63.95499 35994 ft 439 kts 317°
2026-04-22 19:08 18.81712 -63.99269 35990 ft 438 kts 317°
2026-04-22 19:09 18.86632 -64.03033 35981 ft 436 kts 317°
2026-04-22 19:09 18.90749 -64.06176 35991 ft 436 kts 316°
2026-04-22 19:10 18.96456 -64.10534 35996 ft 436 kts 316°
2026-04-22 19:10 19.01365 -64.14296 35993 ft 436 kts 316°
2026-04-22 19:11 19.06274 -64.18060 35990 ft 435 kts 316°
2026-04-22 19:11 19.11171 -64.21809 35992 ft 435 kts 316°
2026-04-22 19:12 19.16065 -64.25561 35994 ft 435 kts 316°
2026-04-22 19:12 19.20961 -64.29316 35994 ft 434 kts 316°
2026-04-22 19:13 19.25840 -64.33070 35987 ft 434 kts 316°
2026-04-22 19:13 19.30728 -64.36826 35992 ft 434 kts 316°
2026-04-22 19:14 19.35607 -64.40579 35990 ft 433 kts 316°
2026-04-22 19:14 19.39658 -64.43697 35997 ft 432 kts 316°
2026-04-22 19:15 19.44514 -64.47448 35988 ft 433 kts 316°
2026-04-22 19:15 19.49391 -64.51203 35983 ft 434 kts 316°
2026-04-22 19:16 19.54267 -64.54959 35998 ft 433 kts 316°
2026-04-22 19:16 19.59130 -64.58722 35998 ft 433 kts 316°
2026-04-22 19:17 19.64005 -64.62487 35998 ft 434 kts 316°
2026-04-22 19:17 19.68879 -64.66256 36002 ft 433 kts 316°
2026-04-22 19:18 19.73738 -64.70025 36003 ft 433 kts 316°
2026-04-22 19:18 19.78599 -64.73782 35999 ft 432 kts 316°
2026-04-22 19:19 19.83451 -64.77545 36000 ft 432 kts 316°
2026-04-22 19:19 19.88304 -64.81307 36000 ft 432 kts 316°
2026-04-22 19:20 19.93156 -64.85078 36003 ft 432 kts 316°
2026-04-22 19:20 19.97979 -64.88821 36003 ft 432 kts 316°
2026-04-22 19:21 20.02823 -64.92590 36010 ft 431 kts 315°
2026-04-22 19:21 20.07692 -64.96376 35998 ft 430 kts 315°
2026-04-22 19:22 20.12474 -65.00103 36002 ft 429 kts 315°
2026-04-22 19:22 20.17272 -65.03841 36000 ft 427 kts 315°
2026-04-22 19:23 20.22062 -65.07574 36009 ft 427 kts 315°
2026-04-22 19:23 20.26850 -65.11315 36001 ft 427 kts 315°
2026-04-22 19:24 20.31639 -65.15057 36006 ft 427 kts 315°
2026-04-22 19:24 20.36432 -65.18803 35996 ft 427 kts 315°
2026-04-22 19:25 20.41208 -65.22541 36001 ft 426 kts 315°
2026-04-22 19:25 20.45981 -65.26278 36004 ft 426 kts 315°
2026-04-22 19:26 20.50756 -65.30022 35998 ft 426 kts 315°
2026-04-22 19:26 20.55538 -65.33765 36000 ft 425 kts 315°
2026-04-22 19:27 20.60297 -65.37502 36000 ft 424 kts 315°
2026-04-22 19:27 20.65054 -65.41241 36005 ft 426 kts 315°
2026-04-22 19:28 20.69822 -65.44990 36002 ft 426 kts 315°
2026-04-22 19:28 20.74591 -65.48742 36001 ft 426 kts 315°
2026-04-22 19:29 20.79356 -65.52497 36003 ft 426 kts 315°
2026-04-22 19:29 20.84098 -65.56232 35999 ft 425 kts 315°
2026-04-22 19:30 20.88093 -65.59388 35995 ft 426 kts 315°
2026-04-22 19:30 20.93632 -65.63755 36005 ft 425 kts 315°
2026-04-22 19:31 20.98391 -65.67516 36001 ft 425 kts 315°
2026-04-22 19:31 21.03143 -65.71271 35996 ft 424 kts 314°
2026-04-22 19:32 21.07886 -65.75028 36003 ft 424 kts 314°
2026-04-22 19:32 21.12631 -65.78783 36010 ft 424 kts 314°
2026-04-22 19:33 21.17365 -65.82535 36010 ft 423 kts 314°
2026-04-22 19:33 21.22093 -65.86286 36010 ft 423 kts 314°
2026-04-22 19:34 21.26825 -65.90043 36009 ft 423 kts 314°
2026-04-22 19:34 21.31549 -65.93799 36005 ft 423 kts 314°
2026-04-22 19:35 21.36270 -65.97553 36012 ft 423 kts 314°
2026-04-22 19:35 21.40983 -66.01298 36010 ft 421 kts 314°
2026-04-22 19:36 21.46037 -66.04635 36013 ft 436 kts 326°
2026-04-22 19:36 21.51925 -66.06637 36017 ft 454 kts 338°
2026-04-22 19:37 21.58150 -66.07873 36011 ft 455 kts 339°
2026-04-22 19:37 21.64377 -66.09069 36011 ft 454 kts 339°
2026-04-22 19:38 21.70578 -66.10313 36011 ft 453 kts 338°
2026-04-22 19:38 21.76775 -66.11570 36022 ft 453 kts 338°
2026-04-22 19:39 21.82967 -66.12842 36020 ft 453 kts 338°
2026-04-22 19:39 21.89167 -66.14121 36015 ft 454 kts 338°
2026-04-22 19:40 21.95369 -66.15390 36028 ft 454 kts 338°
2026-04-22 19:40 22.01569 -66.16662 36031 ft 453 kts 339°
2026-04-22 19:41 22.07767 -66.17928 36028 ft 453 kts 338°
2026-04-22 19:41 22.13968 -66.19194 36022 ft 454 kts 338°
2026-04-22 19:42 22.20174 -66.20460 36024 ft 454 kts 338°
2026-04-22 19:42 22.26375 -66.21723 36036 ft 453 kts 338°
2026-04-22 19:43 22.35673 -66.23622 36028 ft 453 kts 338°
2026-04-22 19:43 22.41858 -66.24886 36032 ft 452 kts 339°
2026-04-22 19:44 22.48017 -66.26148 36040 ft 450 kts 339°
2026-04-22 19:44 22.54175 -66.27414 36036 ft 450 kts 339°
2026-04-22 19:45 22.60329 -66.28677 36035 ft 450 kts 339°
2026-04-22 19:45 22.66485 -66.29946 36043 ft 450 kts 339°
2026-04-22 19:46 22.72631 -66.31203 36033 ft 449 kts 339°
2026-04-22 19:46 22.78739 -66.32467 36029 ft 450 kts 339°
2026-04-22 19:47 22.84890 -66.33732 36037 ft 449 kts 339°
2026-04-22 19:47 22.91030 -66.34994 36046 ft 449 kts 339°
2026-04-22 19:48 22.97160 -66.36260 36035 ft 449 kts 339°
2026-04-22 19:48 23.03299 -66.37531 36039 ft 449 kts 339°
2026-04-22 19:49 23.09435 -66.38801 36043 ft 448 kts 339°
2026-04-22 19:49 23.15563 -66.40073 36046 ft 448 kts 339°
2026-04-22 19:50 23.21684 -66.41345 36039 ft 447 kts 339°
2026-04-22 19:50 23.27788 -66.42610 36053 ft 446 kts 339°
2026-04-22 19:51 23.33894 -66.43881 36046 ft 446 kts 339°
2026-04-22 19:51 23.39986 -66.45148 36037 ft 445 kts 339°
2026-04-22 19:52 23.46075 -66.46418 36043 ft 445 kts 339°
2026-04-22 19:52 23.52161 -66.47688 36053 ft 445 kts 339°
2026-04-22 19:53 23.58253 -66.48967 36035 ft 445 kts 339°
2026-04-22 19:53 23.64340 -66.50235 36055 ft 446 kts 339°
2026-04-22 19:54 23.70395 -66.51503 36046 ft 446 kts 339°
2026-04-22 19:54 23.76490 -66.52780 36050 ft 446 kts 339°
2026-04-22 19:55 23.82582 -66.54054 36042 ft 446 kts 339°
2026-04-22 19:55 23.88690 -66.55332 36048 ft 447 kts 339°
2026-04-22 19:56 23.94783 -66.56609 36045 ft 446 kts 339°
2026-04-22 19:56 24.00877 -66.57890 36060 ft 445 kts 339°
2026-04-22 19:57 24.06949 -66.59170 36049 ft 443 kts 340°
2026-04-22 19:57 24.13006 -66.60446 36061 ft 444 kts 340°
2026-04-22 19:58 24.19072 -66.61722 36048 ft 444 kts 340°
2026-04-22 19:58 24.25144 -66.63004 36060 ft 445 kts 340°
2026-04-22 20:00 24.46391 -66.67493 36036 ft 444 kts 340°
2026-04-22 20:01 24.52463 -66.68784 36048 ft 444 kts 340°
2026-04-22 20:01 24.58528 -66.70070 36049 ft 443 kts 340°
2026-04-22 20:02 24.63600 -66.71141 36054 ft 443 kts 340°
2026-04-22 20:02 24.70629 -66.72636 36064 ft 443 kts 340°
2026-04-22 20:03 24.75700 -66.73714 36057 ft 443 kts 340°
2026-04-22 20:03 24.81707 -66.74992 36056 ft 443 kts 340°
2026-04-22 20:04 24.87744 -66.76278 36051 ft 442 kts 340°
2026-04-22 20:04 24.93782 -66.77571 36063 ft 442 kts 340°
2026-04-22 20:05 24.99817 -66.78861 36041 ft 441 kts 340°
2026-04-22 20:05 25.05843 -66.80143 36058 ft 441 kts 340°
2026-04-22 20:06 25.11879 -66.81443 36067 ft 442 kts 340°
2026-04-22 20:06 25.17931 -66.82739 36061 ft 443 kts 340°
2026-04-22 20:07 25.23974 -66.84027 36068 ft 442 kts 341°
2026-04-22 20:07 25.30012 -66.85320 36061 ft 442 kts 341°
2026-04-22 20:08 25.36052 -66.86622 36046 ft 442 kts 341°
2026-04-22 20:08 25.42092 -66.87919 36053 ft 442 kts 341°
2026-04-22 20:09 25.48113 -66.89218 36056 ft 440 kts 340°
2026-04-22 20:09 25.54130 -66.90515 36068 ft 441 kts 340°
2026-04-22 20:10 25.60150 -66.91813 36071 ft 441 kts 341°
2026-04-22 20:10 25.66171 -66.93113 36063 ft 440 kts 340°
2026-04-22 20:11 25.72194 -66.94416 36061 ft 441 kts 341°
2026-04-22 20:11 25.78180 -66.95708 36069 ft 442 kts 341°
2026-04-22 20:12 25.84213 -66.97015 36063 ft 441 kts 341°
2026-04-22 20:12 25.90244 -66.98319 36066 ft 442 kts 341°
2026-04-22 20:13 25.96269 -66.99626 36071 ft 441 kts 341°
2026-04-22 20:13 26.02285 -67.00935 36080 ft 440 kts 341°
2026-04-22 20:14 26.08282 -67.02244 36070 ft 439 kts 341°
2026-04-22 20:14 26.14279 -67.03549 36077 ft 439 kts 341°
2026-04-22 20:15 26.20262 -67.04853 36076 ft 438 kts 341°
2026-04-22 20:15 26.26244 -67.06157 36073 ft 438 kts 341°
2026-04-22 20:16 26.32229 -67.07462 36080 ft 438 kts 341°
2026-04-22 20:16 26.38213 -67.08775 36074 ft 438 kts 341°
2026-04-22 20:17 26.44193 -67.10080 36086 ft 438 kts 341°
2026-04-22 20:17 26.50168 -67.11387 36081 ft 438 kts 341°
2026-04-22 20:18 26.56146 -67.12700 36085 ft 438 kts 341°
2026-04-22 20:18 26.62133 -67.14017 36080 ft 438 kts 341°
2026-04-22 20:19 26.68119 -67.15329 36091 ft 439 kts 341°
2026-04-22 20:19 26.74111 -67.16655 36095 ft 439 kts 341°
2026-04-22 20:20 26.80103 -67.17965 36085 ft 438 kts 341°
2026-04-22 20:20 26.86087 -67.19285 36096 ft 438 kts 341°
2026-04-22 20:21 26.92061 -67.20608 36091 ft 438 kts 341°
2026-04-22 20:21 26.98026 -67.21927 36090 ft 437 kts 341°
2026-04-22 20:22 27.04004 -67.23245 36098 ft 439 kts 341°
2026-04-22 20:22 27.09960 -67.24565 36095 ft 440 kts 341°
2026-04-22 20:23 27.15964 -67.25901 36092 ft 440 kts 341°
2026-04-22 20:23 27.21957 -67.27238 36090 ft 439 kts 341°
2026-04-22 20:24 27.27943 -67.28567 36089 ft 439 kts 341°
2026-04-22 20:24 27.33934 -67.29901 36096 ft 439 kts 341°
2026-04-22 20:25 27.39929 -67.31230 36090 ft 438 kts 341°
2026-04-22 20:25 27.45903 -67.32558 36106 ft 437 kts 341°
2026-04-22 20:26 27.51870 -67.33897 36097 ft 437 kts 341°
2026-04-22 20:26 27.57836 -67.35236 36103 ft 437 kts 341°
2026-04-22 20:27 27.63807 -67.36577 36098 ft 438 kts 341°
2026-04-22 20:27 27.69777 -67.37915 36102 ft 437 kts 341°
2026-04-22 20:28 27.75744 -67.39257 36103 ft 437 kts 341°
2026-04-22 20:28 27.81714 -67.40603 36101 ft 438 kts 341°
2026-04-22 20:29 27.87686 -67.41947 36112 ft 438 kts 341°
2026-04-22 20:29 27.93655 -67.43290 36111 ft 437 kts 341°
2026-04-22 20:30 27.99618 -67.44640 36107 ft 436 kts 341°
2026-04-22 20:30 28.05572 -67.45982 36107 ft 436 kts 341°
2026-04-22 20:31 28.11476 -67.47314 36108 ft 434 kts 341°
2026-04-22 20:31 28.17396 -67.48655 36113 ft 434 kts 341°
2026-04-22 20:32 28.23327 -67.50003 36120 ft 435 kts 341°
2026-04-22 20:32 28.29274 -67.51350 36120 ft 436 kts 341°
2026-04-22 20:33 28.35212 -67.52699 36123 ft 435 kts 341°
2026-04-22 20:33 28.41144 -67.54044 36116 ft 435 kts 341°
2026-04-22 20:34 28.47077 -67.55392 36114 ft 435 kts 341°
2026-04-22 20:34 28.53018 -67.56743 36119 ft 435 kts 341°
2026-04-22 20:35 28.58959 -67.58095 36126 ft 436 kts 341°
2026-04-22 20:35 28.64902 -67.59450 36118 ft 435 kts 341°
2026-04-22 20:36 28.70835 -67.60803 36125 ft 435 kts 341°
2026-04-22 20:36 28.76767 -67.62157 36129 ft 434 kts 341°
2026-04-22 20:37 28.82687 -67.63514 36129 ft 433 kts 341°
2026-04-22 20:37 28.88591 -67.64866 36135 ft 432 kts 341°
2026-04-22 20:38 28.94493 -67.66223 36128 ft 432 kts 341°
2026-04-22 20:38 29.00388 -67.67586 36126 ft 433 kts 341°
2026-04-22 20:39 29.06286 -67.68937 36122 ft 432 kts 341°
2026-04-22 20:39 29.12180 -67.70291 36132 ft 432 kts 341°
2026-04-22 20:40 29.18029 -67.71636 36135 ft 431 kts 341°
2026-04-22 20:40 29.23903 -67.72987 36145 ft 430 kts 341°
2026-04-22 20:41 29.29777 -67.74346 36137 ft 431 kts 341°
2026-04-22 20:41 29.35660 -67.75708 36152 ft 431 kts 341°
2026-04-22 20:42 29.41544 -67.77067 36159 ft 431 kts 341°
2026-04-22 20:42 29.47420 -67.78430 36156 ft 430 kts 341°
2026-04-22 20:43 29.53285 -67.79795 36156 ft 430 kts 341°
2026-04-22 20:43 29.59143 -67.81152 36163 ft 430 kts 341°
2026-04-22 20:44 29.64997 -67.82514 36161 ft 428 kts 341°
2026-04-22 20:44 29.70832 -67.83875 36167 ft 428 kts 341°
2026-04-22 20:45 29.76658 -67.85234 36167 ft 427 kts 341°
2026-04-22 20:45 29.82478 -67.86594 36163 ft 427 kts 341°
2026-04-22 20:46 29.91227 -67.88637 36169 ft 428 kts 341°
2026-04-22 20:46 29.97067 -67.90002 36166 ft 428 kts 341°
2026-04-22 20:47 30.02901 -67.91371 36165 ft 427 kts 341°
2026-04-22 20:47 30.08726 -67.92740 36167 ft 428 kts 341°
2026-04-22 20:48 30.14504 -67.94095 36170 ft 426 kts 341°
2026-04-22 20:48 30.20326 -67.95465 36172 ft 427 kts 341°
2026-04-22 20:49 30.26155 -67.96842 36169 ft 428 kts 341°
2026-04-22 20:49 30.31991 -67.98217 36166 ft 429 kts 341°
2026-04-22 20:50 30.37830 -67.99592 36161 ft 428 kts 341°
2026-04-22 20:50 30.43667 -68.00977 36170 ft 428 kts 341°
2026-04-22 20:51 30.48524 -68.02129 36163 ft 429 kts 341°
2026-04-22 20:51 30.54366 -68.03509 36165 ft 428 kts 341°
2026-04-22 20:52 30.60211 -68.04895 36165 ft 428 kts 341°
2026-04-22 20:52 30.66048 -68.06279 36160 ft 427 kts 341°
2026-04-22 20:53 30.71866 -68.07663 36163 ft 428 kts 341°
2026-04-22 20:53 30.77708 -68.09054 36171 ft 429 kts 341°
2026-04-22 20:54 30.83566 -68.10449 36164 ft 430 kts 341°
2026-04-22 20:54 30.89441 -68.11852 36165 ft 431 kts 341°
2026-04-22 20:55 30.95322 -68.13258 36161 ft 432 kts 341°
2026-04-22 20:55 31.01201 -68.14665 36167 ft 431 kts 341°
2026-04-22 20:56 31.07076 -68.16076 36166 ft 431 kts 341°
2026-04-22 20:56 31.12945 -68.17484 36162 ft 430 kts 341°
2026-04-22 20:57 31.18801 -68.18888 36161 ft 430 kts 341°
2026-04-22 20:57 31.24662 -68.20299 36166 ft 430 kts 341°
2026-04-22 20:58 31.30516 -68.21709 36164 ft 430 kts 341°
2026-04-22 20:58 31.36387 -68.23125 36163 ft 431 kts 341°
2026-04-22 20:59 31.42269 -68.24544 36166 ft 432 kts 341°
2026-04-22 20:59 31.48159 -68.25967 36168 ft 432 kts 341°
2026-04-22 21:00 31.54003 -68.27377 36162 ft 432 kts 341°
2026-04-22 21:00 31.59886 -68.28800 36164 ft 431 kts 341°
2026-04-22 21:01 31.65761 -68.30222 36164 ft 431 kts 341°
2026-04-22 21:01 31.71638 -68.31647 36172 ft 432 kts 341°
2026-04-22 21:02 31.77543 -68.33088 36168 ft 434 kts 341°
2026-04-22 21:02 31.83455 -68.34526 36167 ft 434 kts 341°
2026-04-22 21:03 31.89373 -68.35966 36161 ft 434 kts 341°
2026-04-22 21:03 31.95281 -68.37407 36163 ft 433 kts 341°
2026-04-22 21:04 32.01186 -68.38851 36169 ft 434 kts 341°
2026-04-22 21:04 32.07091 -68.40302 36164 ft 433 kts 341°
2026-04-22 21:05 32.12992 -68.41749 36165 ft 433 kts 341°
2026-04-22 21:05 32.18884 -68.43189 36165 ft 432 kts 341°
2026-04-22 21:06 32.24777 -68.44636 36163 ft 432 kts 341°
2026-04-22 21:06 32.30674 -68.46090 36169 ft 433 kts 341°
2026-04-22 21:07 32.36579 -68.47540 36168 ft 434 kts 341°
2026-04-22 21:07 32.42480 -68.48996 36163 ft 433 kts 341°
2026-04-22 21:08 32.48344 -68.50444 36171 ft 433 kts 342°
2026-04-22 21:08 32.54237 -68.51895 36172 ft 432 kts 341°
2026-04-22 21:09 32.60122 -68.53350 36182 ft 433 kts 341°
2026-04-22 21:09 32.66017 -68.54815 36172 ft 432 kts 341°
2026-04-22 21:10 32.71899 -68.56276 36174 ft 432 kts 341°
2026-04-22 21:10 32.77781 -68.57739 36178 ft 432 kts 341°
2026-04-22 21:11 32.83668 -68.59206 36172 ft 432 kts 342°
2026-04-22 21:11 32.89557 -68.60676 36175 ft 432 kts 342°
2026-04-22 21:12 32.95445 -68.62151 36179 ft 432 kts 342°
2026-04-22 21:12 33.01342 -68.63619 36182 ft 434 kts 342°
2026-04-22 21:13 33.07238 -68.65088 36172 ft 433 kts 342°
2026-04-22 21:13 33.13131 -68.66567 36176 ft 432 kts 342°
2026-04-22 21:14 33.19013 -68.68051 36175 ft 431 kts 342°
2026-04-22 21:14 33.24881 -68.69526 36179 ft 431 kts 342°
2026-04-22 21:15 33.30756 -68.71000 36177 ft 431 kts 342°
2026-04-22 21:15 33.36636 -68.72482 36171 ft 432 kts 342°
2026-04-22 21:16 33.42527 -68.73970 36167 ft 433 kts 342°
2026-04-22 21:16 33.48419 -68.75458 36178 ft 433 kts 342°
2026-04-22 21:17 33.54316 -68.76949 36172 ft 433 kts 342°
2026-04-22 21:17 33.60179 -68.78437 36188 ft 433 kts 342°
2026-04-22 21:18 33.66076 -68.79933 36180 ft 433 kts 342°
2026-04-22 21:18 33.71973 -68.81427 36175 ft 433 kts 342°
2026-04-22 21:19 33.77865 -68.82921 36176 ft 433 kts 342°
2026-04-22 21:19 33.83756 -68.84423 36172 ft 432 kts 342°
2026-04-22 21:20 33.89648 -68.85932 36182 ft 433 kts 342°
2026-04-22 21:20 33.95546 -68.87436 36180 ft 434 kts 342°
2026-04-22 21:21 34.01458 -68.88950 36172 ft 434 kts 342°
2026-04-22 21:21 34.07362 -68.90465 36174 ft 434 kts 342°
2026-04-22 21:22 34.13262 -68.91983 36180 ft 434 kts 342°
2026-04-22 21:22 34.19166 -68.93503 36183 ft 433 kts 342°
2026-04-22 21:23 34.25063 -68.95021 36172 ft 433 kts 342°
2026-04-22 21:23 34.30955 -68.96542 36168 ft 433 kts 342°
2026-04-22 21:24 34.36841 -68.98069 36163 ft 433 kts 342°
2026-04-22 21:24 34.42721 -68.99585 36170 ft 431 kts 342°
2026-04-22 21:25 34.48603 -69.01112 36162 ft 432 kts 342°
2026-04-22 21:25 34.54499 -69.02646 36279 ft 436 kts 342°
2026-04-22 21:26 34.57452 -69.03415 36619 ft 434 kts 342°
2026-04-22 21:26 34.60400 -69.04181 36973 ft 431 kts 342°
2026-04-22 21:26 34.63303 -69.04933 37507 ft 423 kts 342°
2026-04-22 21:26 34.66177 -69.05678 37827 ft 422 kts 342°
2026-04-22 21:27 34.71971 -69.07200 38037 ft 429 kts 342°
2026-04-22 21:27 34.74890 -69.07967 38165 ft 431 kts 342°
2026-04-22 21:27 34.77826 -69.08738 38161 ft 431 kts 342°
2026-04-22 21:28 34.83663 -69.10261 38165 ft 427 kts 342°
2026-04-22 21:28 34.89455 -69.11774 38167 ft 425 kts 342°
2026-04-22 21:29 34.95187 -69.13276 38171 ft 423 kts 342°
2026-04-22 21:29 35.00943 -69.14790 38171 ft 424 kts 342°
2026-04-22 21:30 35.06740 -69.16320 38168 ft 424 kts 342°
2026-04-22 21:30 35.12515 -69.17842 38175 ft 426 kts 342°
2026-04-22 21:31 35.18269 -69.19359 38165 ft 427 kts 342°
2026-04-22 21:31 35.24082 -69.20893 38167 ft 428 kts 342°
2026-04-22 21:32 35.29913 -69.22437 38169 ft 429 kts 342°
2026-04-22 21:32 35.35736 -69.23983 38168 ft 428 kts 342°
2026-04-22 21:33 35.41567 -69.25535 38167 ft 429 kts 342°
2026-04-22 21:33 35.47398 -69.27083 38166 ft 429 kts 342°
2026-04-22 21:34 35.53229 -69.28633 38165 ft 428 kts 342°
2026-04-22 21:34 35.59048 -69.30186 38167 ft 427 kts 342°
2026-04-22 21:35 35.64862 -69.31742 38160 ft 428 kts 342°
2026-04-22 21:35 35.70675 -69.33292 38166 ft 428 kts 342°
2026-04-22 21:36 35.76500 -69.34848 38164 ft 429 kts 342°
2026-04-22 21:36 35.82327 -69.36417 38168 ft 428 kts 342°
2026-04-22 21:37 35.88154 -69.37986 38161 ft 429 kts 342°
2026-04-22 21:37 35.93983 -69.39555 38156 ft 429 kts 342°
2026-04-22 21:38 35.98830 -69.40859 38157 ft 429 kts 342°
2026-04-22 21:38 36.04664 -69.42432 38158 ft 429 kts 342°
2026-04-22 21:39 36.10494 -69.44009 38159 ft 429 kts 342°
2026-04-22 21:39 36.16117 -69.46220 38160 ft 420 kts 329°
2026-04-22 21:40 36.20949 -69.50114 38153 ft 413 kts 318°
2026-04-22 21:40 36.25486 -69.54529 38135 ft 414 kts 318°
2026-04-22 21:41 36.30019 -69.58952 38135 ft 414 kts 318°
2026-04-22 21:41 36.34562 -69.63354 38146 ft 414 kts 318°
2026-04-22 21:42 36.39104 -69.67747 38145 ft 414 kts 318°
2026-04-22 21:42 36.43632 -69.72136 38126 ft 412 kts 318°
2026-04-22 21:43 36.48161 -69.76522 38151 ft 413 kts 318°
2026-04-22 21:43 36.52699 -69.80916 38140 ft 414 kts 318°
2026-04-22 21:44 36.57200 -69.85292 38134 ft 414 kts 318°
2026-04-22 21:44 36.61732 -69.89707 38134 ft 414 kts 318°
2026-04-22 21:45 36.66260 -69.94121 38134 ft 413 kts 318°
2026-04-22 21:45 36.70786 -69.98543 38131 ft 413 kts 318°
2026-04-22 21:46 36.75314 -70.02972 38132 ft 414 kts 318°
2026-04-22 21:46 36.79843 -70.07407 38133 ft 413 kts 318°
2026-04-22 21:47 36.84355 -70.11831 38130 ft 413 kts 318°
2026-04-22 21:47 36.88865 -70.16255 38138 ft 412 kts 318°
2026-04-22 21:48 36.93369 -70.20692 38126 ft 412 kts 318°
2026-04-22 21:48 36.97858 -70.25123 38133 ft 411 kts 318°
2026-04-22 21:49 37.02349 -70.29552 38132 ft 411 kts 318°
2026-04-22 21:49 37.06829 -70.33982 38134 ft 411 kts 318°
2026-04-22 21:50 37.11316 -70.38426 38138 ft 411 kts 318°
2026-04-22 21:50 37.15809 -70.42884 38124 ft 412 kts 318°
2026-04-22 21:51 37.20294 -70.47338 38127 ft 411 kts 318°
2026-04-22 21:52 37.27011 -70.54025 38131 ft 411 kts 318°
2026-04-22 21:52 37.31499 -70.58499 38126 ft 411 kts 318°
2026-04-22 21:53 37.35946 -70.62942 38130 ft 411 kts 318°
2026-04-22 21:53 37.40427 -70.67420 38131 ft 411 kts 318°
2026-04-22 21:54 37.44905 -70.71908 38127 ft 411 kts 318°
2026-04-22 21:54 37.49366 -70.76388 38128 ft 410 kts 318°
2026-04-22 21:55 37.53825 -70.80864 38135 ft 410 kts 318°
2026-04-22 21:55 37.58282 -70.85350 38128 ft 411 kts 318°
2026-04-22 21:56 37.62740 -70.89849 38131 ft 410 kts 318°
2026-04-22 21:56 37.67196 -70.94352 38130 ft 410 kts 318°
2026-04-22 21:57 37.71519 -70.99016 38123 ft 407 kts 311°
2026-04-22 21:57 37.74989 -71.04648 38123 ft 406 kts 305°
2026-04-22 21:58 37.78352 -71.10389 38125 ft 407 kts 305°
2026-04-22 21:58 37.81736 -71.16138 38125 ft 408 kts 305°
2026-04-22 21:59 37.85132 -71.21886 38121 ft 408 kts 305°
2026-04-22 21:59 37.88529 -71.27630 38122 ft 407 kts 305°
2026-04-22 22:00 37.91918 -71.33383 38121 ft 408 kts 305°
2026-04-22 22:00 37.95310 -71.39144 38108 ft 408 kts 305°
2026-04-22 22:01 37.99053 -71.44541 38114 ft 410 kts 318°
2026-04-22 22:01 38.03849 -71.48521 38119 ft 414 kts 327°
2026-04-22 22:02 38.08854 -71.52133 38110 ft 414 kts 327°
2026-04-22 22:02 38.13833 -71.55742 38113 ft 414 kts 327°
2026-04-22 22:03 38.18831 -71.59408 38107 ft 415 kts 327°
2026-04-22 22:03 38.23846 -71.63103 38108 ft 414 kts 327°
2026-04-22 22:04 38.28828 -71.66779 38111 ft 414 kts 327°
2026-04-22 22:04 38.33813 -71.70469 38117 ft 415 kts 327°
2026-04-22 22:05 38.38765 -71.74138 38108 ft 415 kts 327°
2026-04-22 22:05 38.43755 -71.77836 38099 ft 415 kts 327°
2026-04-22 22:06 38.48738 -71.81541 38104 ft 415 kts 327°
2026-04-22 22:06 38.53726 -71.85257 38103 ft 415 kts 327°
2026-04-22 22:07 38.58698 -71.88963 38095 ft 414 kts 326°
2026-04-22 22:07 38.63680 -71.92681 38093 ft 414 kts 326°
2026-04-22 22:08 38.68659 -71.96402 38087 ft 415 kts 327°
2026-04-22 22:08 38.73635 -72.00124 38096 ft 414 kts 326°
2026-04-22 22:09 38.78605 -72.03859 38094 ft 415 kts 327°
2026-04-22 22:09 38.83586 -72.07603 38093 ft 415 kts 327°
2026-04-22 22:10 38.88560 -72.11347 38097 ft 414 kts 327°
2026-04-22 22:10 38.93494 -72.15068 38087 ft 414 kts 327°
2026-04-22 22:11 38.98460 -72.18815 38087 ft 414 kts 327°
2026-04-22 22:11 39.03434 -72.22573 38092 ft 415 kts 327°
2026-04-22 22:12 39.08400 -72.26339 38094 ft 414 kts 327°
2026-04-22 22:12 39.13363 -72.30118 38083 ft 414 kts 327°
2026-04-22 22:13 39.18331 -72.33894 38078 ft 415 kts 327°
2026-04-22 22:13 39.23301 -72.37675 38095 ft 415 kts 327°
2026-04-22 22:14 39.28268 -72.41464 38099 ft 415 kts 327°
2026-04-22 22:14 39.33242 -72.45262 38098 ft 416 kts 327°
2026-04-22 22:15 39.38221 -72.49072 38090 ft 416 kts 327°
2026-04-22 22:15 39.43201 -72.52893 38089 ft 415 kts 327°
2026-04-22 22:16 39.48171 -72.56709 38095 ft 415 kts 327°
2026-04-22 22:16 39.53141 -72.60536 38096 ft 416 kts 327°
2026-04-22 22:17 39.58111 -72.64364 38088 ft 415 kts 327°
2026-04-22 22:17 39.63062 -72.68187 38087 ft 414 kts 327°
2026-04-22 22:18 39.68016 -72.72022 38085 ft 415 kts 327°
2026-04-22 22:18 39.72970 -72.75854 38087 ft 415 kts 327°
2026-04-22 22:19 39.77902 -72.79742 38073 ft 414 kts 321°
2026-04-22 22:19 39.79913 -72.82369 38099 ft 409 kts 305°
2026-04-22 22:19 39.81319 -72.85583 38084 ft 410 kts 294°
2026-04-22 22:19 39.82168 -72.89070 38080 ft 413 kts 281°
2026-04-22 22:20 39.82393 -72.92800 38088 ft 415 kts 274°
2026-04-22 22:20 39.82321 -73.00367 38080 ft 416 kts 271°
2026-04-22 22:21 39.82168 -73.07880 38067 ft 415 kts 272°
2026-04-22 22:21 39.82069 -73.15392 38077 ft 416 kts 272°
2026-04-22 22:22 39.81996 -73.22868 38070 ft 416 kts 272°
2026-04-22 22:22 39.81928 -73.30404 38063 ft 417 kts 272°
2026-04-22 22:23 39.81848 -73.37933 38068 ft 417 kts 272°
2026-04-22 22:23 39.81772 -73.45477 38065 ft 417 kts 272°
2026-04-22 22:24 39.81685 -73.53032 38059 ft 418 kts 272°
2026-04-22 22:24 39.81595 -73.60586 38055 ft 417 kts 273°
2026-04-22 22:25 39.81490 -73.68117 38052 ft 417 kts 271°
2026-04-22 22:25 39.81046 -73.75651 38060 ft 418 kts 269°
2026-04-22 22:26 39.80588 -73.81918 38061 ft 419 kts 269°
2026-04-22 22:26 39.80069 -73.89462 38061 ft 418 kts 269°
2026-04-22 22:27 39.79726 -73.96979 38055 ft 414 kts 276°
2026-04-22 22:27 39.80061 -74.04452 38059 ft 415 kts 277°
2026-04-22 22:28 39.80420 -74.11933 37909 ft 417 kts 277°
2026-04-22 22:28 39.80588 -74.15725 37319 ft 419 kts 276°
2026-04-22 22:28 39.80746 -74.19500 36667 ft 417 kts 276°
2026-04-22 22:28 39.80898 -74.23249 35966 ft 413 kts 276°
2026-04-22 22:29 39.81050 -74.27007 34916 ft 419 kts 276°
2026-04-22 22:29 39.81205 -74.30782 34101 ft 418 kts 276°
2026-04-22 22:29 39.81359 -74.34570 33235 ft 420 kts 276°
2026-04-22 22:29 39.81649 -74.38338 32333 ft 418 kts 285°
2026-04-22 22:30 39.82708 -74.41847 31469 ft 419 kts 299°
2026-04-22 22:30 39.84359 -74.44983 30508 ft 422 kts 309°
2026-04-22 22:30 39.86543 -74.47553 29455 ft 427 kts 322°
2026-04-22 22:30 39.89036 -74.49671 28335 ft 430 kts 325°
2026-04-22 22:31 39.91578 -74.51743 27186 ft 432 kts 325°
2026-04-22 22:31 39.94116 -74.53858 26031 ft 436 kts 324°
2026-04-22 22:31 39.96683 -74.55992 24868 ft 437 kts 328°
2026-04-22 22:31 39.99510 -74.57339 23756 ft 434 kts 345°
2026-04-22 22:32 40.02548 -74.57702 22728 ft 442 kts 356°
2026-04-22 22:32 40.05610 -74.57234 21723 ft 446 kts
2026-04-22 22:32 40.08532 -74.55880 20796 ft 445 kts 18°
2026-04-22 22:32 40.11355 -74.54286 19861 ft 438 kts 19°
2026-04-22 22:33 40.14137 -74.52731 18938 ft 430 kts 18°
2026-04-22 22:33 40.16922 -74.51529 18005 ft 413 kts
2026-04-22 22:33 40.19635 -74.51560 17195 ft 398 kts 347°
2026-04-22 22:33 40.22279 -74.52502 16288 ft 390 kts 335°
2026-04-22 22:34 40.24637 -74.54181 15368 ft 383 kts 322°
2026-04-22 22:34 40.26686 -74.56366 14400 ft 378 kts 317°
2026-04-22 22:34 40.28683 -74.58602 13494 ft 377 kts 318°
2026-04-22 22:34 40.30669 -74.60805 12587 ft 370 kts 320°
2026-04-22 22:35 40.32858 -74.62581 11706 ft 370 kts 330°
2026-04-22 22:35 40.35237 -74.63864 10899 ft 371 kts 339°
2026-04-22 22:35 40.37623 -74.64904 10745 ft 349 kts 337°
2026-04-22 22:35 40.39855 -74.65941 10566 ft 331 kts 338°
2026-04-22 22:36 40.41991 -74.66885 10438 ft 314 kts 338°
2026-04-22 22:36 40.44076 -74.67739 10288 ft 315 kts 346°
2026-04-22 22:36 40.46255 -74.67661 10225 ft 319 kts 10°
2026-04-22 22:36 40.48278 -74.66522 10003 ft 322 kts 26°
2026-04-22 22:37 40.50193 -74.64996 9430 ft 322 kts 28°
2026-04-22 22:37 40.52089 -74.63414 8749 ft 324 kts 28°
2026-04-22 22:37 40.53986 -74.61822 8226 ft 322 kts 29°
2026-04-22 22:37 40.55874 -74.60240 8068 ft 322 kts 28°
2026-04-22 22:38 40.57748 -74.58669 7983 ft 312 kts 28°
2026-04-22 22:38 40.59524 -74.57170 7897 ft 296 kts 29°
2026-04-22 22:38 40.61218 -74.55729 7675 ft 287 kts 29°
2026-04-22 22:38 40.62881 -74.54311 7293 ft 283 kts 29°
2026-04-22 22:39 40.64539 -74.52910 6835 ft 283 kts 28°
2026-04-22 22:39 40.66189 -74.51521 6400 ft 281 kts 28°
2026-04-22 22:39 40.67836 -74.50133 5968 ft 281 kts 29°
2026-04-22 22:39 40.69476 -74.48754 5573 ft 279 kts 29°
2026-04-22 22:40 40.71112 -74.47391 5218 ft 277 kts 29°
2026-04-22 22:40 40.72747 -74.46051 5008 ft 277 kts 29°
2026-04-22 22:40 40.74392 -74.44728 5000 ft 275 kts 28°
2026-04-22 22:40 40.75990 -74.43441 4929 ft 263 kts 28°
2026-04-22 22:41 40.77519 -74.42204 4761 ft 255 kts 29°
2026-04-22 22:41 40.79024 -74.40986 4443 ft 253 kts 29°
2026-04-22 22:41 40.80523 -74.39792 4092 ft 251 kts 29°
2026-04-22 22:41 40.82030 -74.38613 4014 ft 252 kts 29°
2026-04-22 22:42 40.83541 -74.37444 3995 ft 251 kts 28°
2026-04-22 22:42 40.84901 -74.36048 3808 ft 249 kts 51°
2026-04-22 22:42 40.85600 -74.33985 3497 ft 247 kts 80°
2026-04-22 22:42 40.85832 -74.31738 3156 ft 248 kts 84°
2026-04-22 22:43 40.86043 -74.29483 3016 ft 247 kts 85°
2026-04-22 22:43 40.86253 -74.27229 2989 ft 247 kts 84°
2026-04-22 22:43 40.86351 -74.24984 2972 ft 244 kts 101°
2026-04-22 22:43 40.85902 -74.22852 2980 ft 241 kts 114°
2026-04-22 22:44 40.85227 -74.20835 2984 ft 240 kts 117°
2026-04-22 22:44 40.84535 -74.18870 2973 ft 233 kts 117°
2026-04-22 22:44 40.83866 -74.16955 2977 ft 227 kts 117°
2026-04-22 22:44 40.83204 -74.15068 2992 ft 227 kts 117°
2026-04-22 22:45 40.82525 -74.13189 2995 ft 227 kts 117°
2026-04-22 22:45 40.81775 -74.11340 2982 ft 228 kts 134°
2026-04-22 22:45 40.80481 -74.10303 2971 ft 215 kts 176°
2026-04-22 22:45 40.79064 -74.10500 2942 ft 200 kts 193°
2026-04-22 22:46 40.77804 -74.11108 2797 ft 192 kts 211°
2026-04-22 22:46 40.76620 -74.11905 2487 ft 194 kts 204°
2026-04-22 22:46 40.75402 -74.12626 2051 ft 189 kts 201°
2026-04-22 22:46 40.74192 -74.13298 1470 ft 189 kts 201°
2026-04-22 22:47 40.73033 -74.14053 968 ft 182 kts 207°
2026-04-22 22:47 40.71956 -74.14764 598 ft 162 kts 205°
2026-04-22 22:47 40.70996 -74.15353 327 ft 143 kts 207°
2026-04-22 22:47 40.70137 -74.15915 100 ft 135 kts 206°
2026-04-22 22:48 40.69312 -74.16436 26 ft 123 kts 206°
2026-04-22 22:48 40.68732 -74.16807 20 ft 62 kts 205°
2026-04-22 22:48 40.68539 -74.16985 22 ft 31 kts 232°
2026-04-22 22:48 40.68509 -74.17135 24 ft 14 kts 315°
2026-04-22 22:49 40.68589 -74.17115 22 ft 7 kts 26°
2026-04-22 22:49 40.68622 -74.17140 23 ft 7 kts 294°
2026-04-22 22:49 40.68642 -74.17197 23 ft 8 kts 294°
2026-04-22 22:49 40.68670 -74.17273 27 ft 11 kts 296°
2026-04-22 22:50 40.68706 -74.17370 26 ft 12 kts 295°
2026-04-22 22:50 40.68746 -74.17446 22 ft 9 kts 345°
2026-04-22 22:50 40.68801 -74.17423 21 ft 8 kts 25°
2026-04-22 22:50 40.68852 -74.17389 23 ft 8 kts 29°
2026-04-22 22:51 40.68902 -74.17357 23 ft 8 kts 24°
2026-04-22 22:51 40.68949 -74.17335 21 ft 3 kts 353°
2026-04-22 22:51 40.68963 -74.17364 21 ft 5 kts 296°
2026-04-22 22:51 40.68981 -74.17414 21 ft 7 kts 291°
2026-04-22 22:52 40.68993 -74.17468 21 ft 2 kts 284°
2026-04-22 22:52 40.68994 -74.17473 23 ft 0 kts 284°